This demonstration page uses our WeatherBlox Daily Observations layout. Learn more.

Hourly Observations for June 14, 2018

Temp ( °F °C ) Dew Point ( °F °C ) Humidity (%) Winds ( mph kmh ) Pressure ( in mb ) Visibility ( mi km ) Precip ( " mm )
12:15 am 00:15 Clear 77 25 73 23 89 89 WSW 8 13 29.85 1011 10 16.09344 0 0
12:35 am 00:35 Clear 77 25 72 22 83 83 WSW 7 11 29.88 1012 10 16.09344 0 0
12:55 am 00:55 Clear 73 23 72 22 94 94 W 6 9 29.88 1012 10 16.09344 0 0
1:15 am 01:15 Partly Cloudy 73 23 72 22 94 94 WNW 6 9 29.88 1012 10 16.09344 0 0
1:35 am 01:35 Mostly Cloudy 73 23 72 22 94 94 WNW 7 11 29.88 1012 10 16.09344 0 0
1:55 am 01:55 Cloudy 77 25 72 22 83 83 NW 8 13 29.88 1012 10 16.09344 0 0
2:15 am 02:15 Cloudy 77 25 70 21 79 79 WNW 5 7 29.88 1012 10 16.09344 0 0
2:35 am 02:35 Cloudy 75 24 70 21 83 83 W 3 6 29.91 1013 10 16.09344 0 0
2:55 am 02:55 Cloudy 75 24 70 21 83 83 NW 6 9 29.91 1013 10 16.09344 0 0
3:15 am 03:15 Cloudy 73 23 70 21 89 89 NW 5 7 29.91 1013 10 16.09344 0 0
3:35 am 03:35 Cloudy 72 22 70 21 94 94 NW 8 13 29.91 1013 10 16.09344 0 0
3:55 am 03:55 Partly Cloudy 73 23 68 20 83 83 N 8 13 29.91 1013 10 16.09344 0 0
4:15 am 04:15 Partly Cloudy 73 23 68 20 83 83 NNW 9 15 29.91 1013 10 16.09344 0 0
4:35 am 04:35 Partly Cloudy 73 23 64 18 74 74 NNW 8 13 29.91 1013 10 16.09344 0 0
4:55 am 04:55 Mostly Cloudy 73 23 64 18 74 74 N 8 13 29.91 1013 10 16.09344 0 0
5:15 am 05:15 Mostly Cloudy 73 23 64 18 74 74 N 6 9 29.94 1014 10 16.09344 0 0
5:35 am 05:35 Clear 72 22 63 17 73 73 N 5 7 29.94 1014 10 16.09344 0 0
5:55 am 05:55 Partly Cloudy 72 22 61 16 69 69 N 7 11 29.94 1014 10 16.09344 0 0
6:15 am 06:15 Partly Cloudy 70 21 59 15 69 69 N 8 13 29.94 1014 10 16.09344 0 0
6:35 am 06:35 Sunny 70 21 57 14 64 64 N 8 13 29.97 1015 10 16.09344 0 0
6:55 am 06:55 Sunny 70 21 59 15 69 69 N 7 11 29.97 1015 10 16.09344 0 0
7:15 am 07:15 Sunny 70 21 57 14 64 64 NNW 7 11 29.97 1015 10 16.09344 0 0
7:35 am 07:35 Sunny 72 22 57 14 61 61 N 7 11 29.97 1015 10 16.09344 0 0
7:55 am 07:55 Sunny 72 22 55 13 57 57 N 9 15 29.97 1015 10 16.09344 0 0
8:15 am 08:15 Sunny 72 22 55 13 57 57 NNW 9 15 29.97 1015 10 16.09344 0 0
8:35 am 08:35 Sunny 72 22 59 15 65 65 NNW 10 17 29.97 1015 10 16.09344 0 0
8:55 am 08:55 Sunny 70 21 61 16 73 73 NW 10 17 30 1016 10 16.09344 0 0
9:15 am 09:15 Sunny 72 22 61 16 69 69 NW 10 17 30 1016 10 16.09344 0 0
9:35 am 09:35 Sunny 73 23 59 15 61 61 WNW 3 6 30 1016 10 16.09344 0 0
9:55 am 09:55 Sunny 75 24 59 15 57 57 NNW 7 11 30 1016 10 16.09344 0 0
10:15 am 10:15 Sunny 77 25 55 13 47 47 NNW 10 17 30 1016 10 16.09344 0 0
10:35 am 10:35 Sunny 79 26 54 12 42 42 NNW 10 17 30 1016 10 16.09344 0 0
10:55 am 10:55 Sunny 79 26 52 11 39 39 NW 13 20 30 1016 10 16.09344 0 0
11:15 am 11:15 Sunny 79 26 52 11 39 39 N 12 19 30 1016 10 16.09344 0 0
11:35 am 11:35 Sunny 79 26 50 10 37 37 NNW 14 22 30 1016 10 16.09344 0 0
11:55 am 11:55 Hazy 79 26 54 12 42 42 NNW 16 26 30 1016 5 8.04672 0 0
12:15 pm 12:15 Sunny 81 27 54 12 39 39 NW 14 22 29.97 1015 10 16.09344 0 0
12:35 pm 12:35 Hazy 81 27 54 12 39 39 NNW 14 22 29.97 1015 4 6.437376 0 0
12:55 pm 12:55 Sunny 81 27 52 11 37 37 NNW 13 20 29.97 1015 10 16.09344 0 0
1:15 pm 13:15 Sunny 82 28 54 12 37 37 WNW 13 20 29.97 1015 10 16.09344 0 0
1:35 pm 13:35 Sunny 82 28 54 12 37 37 W 14 22 29.97 1015 10 16.09344 0 0
1:55 pm 13:55 Sunny 82 28 55 13 40 40 NW 16 26 29.94 1014 7 11.265408 0 0
2:15 pm 14:15 Sunny 82 28 55 13 40 40 NW 16 26 29.94 1014 10 16.09344 0 0
2:35 pm 14:35 Sunny 82 28 55 13 40 40 NW 13 20 29.94 1014 10 16.09344 0 0
2:55 pm 14:55 Sunny 82 28 55 13 40 40 W 14 22 29.94 1014 10 16.09344 0 0
3:15 pm 15:15 Sunny 84 29 55 13 37 37 NW 22 35 29.94 1014 10 16.09344 0 0
3:35 pm 15:35 Sunny 86 30 55 13 35 35 WNW 16 26 29.91 1013 10 16.09344 0 0
3:55 pm 15:55 Sunny 86 30 55 13 35 35 NW 17 28 29.91 1013 10 16.09344 0 0
4:15 pm 16:15 Sunny 86 30 54 12 33 33 NW 15 24 29.91 1013 10 16.09344 0 0
4:35 pm 16:35 Sunny 86 30 54 12 33 33 WNW 18 30 29.88 1012 10 16.09344 0 0
4:55 pm 16:55 Sunny 86 30 54 12 33 33 NW 15 24 29.88 1012 7 11.265408 0 0
5:15 pm 17:15 Sunny 86 30 55 13 35 35 NW 15 24 29.88 1012 10 16.09344 0 0
5:35 pm 17:35 Sunny 84 29 54 12 35 35 NW 14 22 29.91 1013 10 16.09344 0 0
5:55 pm 17:55 Sunny 84 29 54 12 35 35 WNW 14 22 29.91 1013 10 16.09344 0 0
6:15 pm 18:15 Sunny 82 28 54 12 37 37 NNW 17 28 29.91 1013 10 16.09344 0 0
6:35 pm 18:35 Sunny 82 28 54 12 37 37 NW 15 24 29.91 1013 10 16.09344 0 0
6:55 pm 18:55 Sunny 82 28 54 12 37 37 WNW 10 17 29.91 1013 10 16.09344 0 0
7:15 pm 19:15 Sunny 81 27 54 12 39 39 WNW 10 17 29.94 1014 10 16.09344 0 0
7:35 pm 19:35 Sunny 81 27 55 13 42 42 WNW 12 19 29.94 1014 10 16.09344 0 0
7:55 pm 19:55 Sunny 79 26 55 13 45 45 WNW 7 11 29.94 1014 10 16.09344 0 0
8:15 pm 20:15 Sunny 77 25 57 14 51 51 W 5 7 29.94 1014 10 16.09344 0 0
8:35 pm 20:35 Sunny 73 23 59 15 61 61 W 6 9 29.94 1014 10 16.09344 0 0
8:55 pm 20:55 Clear 73 23 57 14 57 57 WNW 7 11 29.94 1014 10 16.09344 0 0
9:15 pm 21:15 Clear 73 23 57 14 57 57 WNW 7 11 29.94 1014 10 16.09344 0 0
9:35 pm 21:35 Clear 73 23 55 13 53 53 WNW 7 11 29.94 1014 10 16.09344 0 0
9:55 pm 21:55 Clear 72 22 55 13 57 57 WNW 7 11 29.97 1015 10 16.09344 0 0
10:15 pm 22:15 Clear 72 22 55 13 57 57 WNW 7 11 29.97 1015 10 16.09344 0 0
10:35 pm 22:35 Clear 70 21 55 13 60 60 W 5 7 29.97 1015 10 16.09344 0 0
10:55 pm 22:55 Clear 70 21 57 14 64 64 W 5 7 29.97 1015 10 16.09344 0 0
11:15 pm 23:15 Clear 70 21 55 13 60 60 W 5 7 29.97 1015 10 16.09344 0 0
11:35 pm 23:35 Clear 70 21 55 13 60 60 WNW 3 6 29.97 1015 10 16.09344 0 0
11:55 pm 23:55 Clear 70 21 55 13 60 60 NW 3 6 29.97 1015 10 16.09344 0 0

Powered by AerisWeather